Location: Unspecified
(0.0000°N, 0.0000°E)
Time: 03:36:24
(UTC+00:00)

USA 238 DEB - Pass Details

Date: 04 June 2023
Orbit: 930 x 1283 km, 63.4° (Epoch: 27 September)

Event Time Altitude Azimuth Distance (km) Brightness Sun altitude
Rises 04:16:45 0° 1° (N) 4,172 7.1 -23.3°
Reaches altitude 10° 04:20:06 10° 14° (NNE) 3,239 6.7 -22.6°
Maximum altitude 04:26:22 26° 67° (ENE) 2,296 6.2 -21.2°
Drops below altitude 10° 04:32:40 10° 119° (ESE) 3,270 6.7 -19.7°
Sets 04:36:01 0° 131° (SE) 4,220 7.2 -18.9°
